TimeMST,TemperatureF,Dew PointF,Humidity,Sea Level PressureIn,VisibilityMPH,Wind Direction,Wind SpeedMPH,Gust SpeedMPH,PrecipitationIn,Events,Conditions,WindDirDegrees,DateUTC
12:53 AM,12.9,8.1,81,30.14,10.0,SW,3.5,-,N/A,,Clear,230,2012-12-29 07:53:00
1:53 AM,10.0,6.1,84,30.14,10.0,WSW,8.1,-,N/A,,Clear,240,2012-12-29 08:53:00
2:53 AM,12.9,9.0,84,30.15,10.0,WSW,9.2,-,N/A,,Clear,240,2012-12-29 09:53:00
3:53 AM,10.0,6.1,84,30.17,10.0,South,5.8,-,N/A,,Clear,190,2012-12-29 10:53:00
4:53 AM,10.0,5.0,80,30.16,10.0,SW,8.1,-,N/A,,Clear,220,2012-12-29 11:53:00
5:53 AM,10.9,7.0,84,30.17,10.0,SW,6.9,-,N/A,,Clear,220,2012-12-29 12:53:00
6:53 AM,10.0,5.0,80,30.17,10.0,SW,6.9,-,N/A,,Clear,220,2012-12-29 13:53:00
7:53 AM,10.9,7.0,84,30.17,10.0,SSW,5.8,-,N/A,,Clear,210,2012-12-29 14:53:00
8:53 AM,9.0,5.0,84,30.19,10.0,South,6.9,-,N/A,,Clear,170,2012-12-29 15:53:00
9:53 AM,14.0,10.0,84,30.19,10.0,SSE,3.5,-,N/A,,Clear,160,2012-12-29 16:53:00
10:53 AM,18.0,12.9,81,30.18,10.0,SSE,4.6,-,N/A,,Clear,160,2012-12-29 17:53:00
11:53 AM,19.9,14.0,78,30.14,10.0,South,3.5,-,N/A,,Clear,170,2012-12-29 18:53:00
12:53 PM,21.9,12.9,68,30.10,10.0,SE,3.5,-,N/A,,Clear,130,2012-12-29 19:53:00
1:53 PM,26.1,15.1,63,30.09,10.0,South,3.5,-,N/A,,Clear,190,2012-12-29 20:53:00
2:53 PM,25.0,16.0,69,30.09,10.0,SSE,5.8,-,N/A,,Clear,160,2012-12-29 21:53:00
3:53 PM,23.0,15.1,72,30.09,10.0,SSE,5.8,-,N/A,,Clear,160,2012-12-29 22:53:00
4:53 PM,23.0,14.0,68,30.08,10.0,SE,8.1,-,N/A,,Clear,140,2012-12-29 23:53:00
5:53 PM,21.9,14.0,72,30.07,10.0,SSE,6.9,-,N/A,,Clear,150,2012-12-30 00:53:00
6:53 PM,21.0,14.0,74,30.07,10.0,SSE,6.9,-,N/A,,Clear,160,2012-12-30 01:53:00
7:53 PM,19.9,12.9,74,30.06,10.0,SSE,4.6,-,N/A,,Clear,150,2012-12-30 02:53:00
8:53 PM,19.9,12.9,74,30.06,10.0,SSE,4.6,-,N/A,,Clear,160,2012-12-30 03:53:00
9:53 PM,16.0,10.9,81,30.07,10.0,South,4.6,-,N/A,,Clear,190,2012-12-30 04:53:00
10:53 PM,12.9,9.0,84,30.07,10.0,SSE,5.8,-,N/A,,Clear,160,2012-12-30 05:53:00
11:53 PM,8.1,6.1,92,30.07,10.0,Calm,Calm,-,N/A,,Clear,0,2012-12-30 06:53:00